Time,TemperatureF,DewpointF,PressureIn,WindDirection,WindDirectionDegrees,WindSpeedMPH,WindSpeedGustMPH,Humidity,HourlyPrecipIn,Conditions,Clouds,dailyrainin,SoftwareType,DateUTC
2013-01-21 00:17:00,26.7,18.0,30.12,West,272,1.0,1.0,69,0.00,,,0.00,weatherlink.com 1.10,2013-01-21 05:17:00,
2013-01-21 00:32:00,26.6,18.0,30.13,West,270,1.0,1.0,69,0.00,,,0.00,weatherlink.com 1.10,2013-01-21 05:32:00,
2013-01-21 00:47:00,26.2,18.0,30.14,West,270,0.0,1.0,70,0.00,,,0.00,weatherlink.com 1.10,2013-01-21 05:47:00,
2013-01-21 01:02:00,25.7,16.0,30.14,West,270,0.0,0.0,68,0.00,,,0.00,weatherlink.com 1.10,2013-01-21 06:02:00,
2013-01-21 01:17:00,25.4,16.0,30.14,West,270,0.0,0.0,68,0.00,,,0.00,weatherlink.com 1.10,2013-01-21 06:17:00,
2013-01-21 01:32:00,25.1,17.0,30.15,West,269,0.0,0.0,70,0.00,,,0.00,weatherlink.com 1.10,2013-01-21 06:32:00,
2013-01-21 01:47:00,25.0,17.0,30.15,West,263,0.0,0.0,71,0.00,,,0.00,weatherlink.com 1.10,2013-01-21 06:47:00,
2013-01-21 02:02:00,24.7,17.0,30.15,West,263,0.0,0.0,71,0.00,,,0.00,weatherlink.com 1.10,2013-01-21 07:02:00,
2013-01-21 02:17:00,24.4,16.0,30.16,West,263,0.0,0.0,70,0.00,,,0.00,weatherlink.com 1.10,2013-01-21 07:17:00,
2013-01-21 02:32:00,24.0,16.0,30.16,West,263,0.0,0.0,70,0.00,,,0.00,weatherlink.com 1.10,2013-01-21 07:32:00,
2013-01-21 02:47:00,23.8,16.0,30.15,West,262,0.0,0.0,71,0.00,,,0.00,weatherlink.com 1.10,2013-01-21 07:47:00,
2013-01-21 03:03:00,23.5,16.0,30.15,West,262,0.0,0.0,73,0.00,,,0.00,weatherlink.com 1.10,2013-01-21 08:03:00,
2013-01-21 03:18:00,23.3,16.0,30.15,West,263,0.0,0.0,72,0.00,,,0.00,weatherlink.com 1.10,2013-01-21 08:18:00,
2013-01-21 03:33:00,23.1,15.0,30.14,West,262,0.0,0.0,72,0.00,,,0.00,weatherlink.com 1.10,2013-01-21 08:33:00,
2013-01-21 03:48:00,22.8,15.0,30.14,West,263,0.0,0.0,72,0.00,,,0.00,weatherlink.com 1.10,2013-01-21 08:48:00,
2013-01-21 04:03:00,22.7,15.0,30.14,West,263,0.0,0.0,72,0.00,,,0.00,weatherlink.com 1.10,2013-01-21 09:03:00,
2013-01-21 04:18:00,22.5,15.0,30.13,West,263,0.0,0.0,74,0.00,,,0.00,weatherlink.com 1.10,2013-01-21 09:18:00,
2013-01-21 04:33:00,22.3,15.0,30.13,West,263,0.0,0.0,74,0.00,,,0.00,weatherlink.com 1.10,2013-01-21 09:33:00,
2013-01-21 04:48:00,22.3,15.0,30.13,West,263,0.0,0.0,74,0.00,,,0.00,weatherlink.com 1.10,2013-01-21 09:48:00,
2013-01-21 05:03:00,22.5,14.0,30.13,West,262,0.0,0.0,71,0.00,,,0.00,weatherlink.com 1.10,2013-01-21 10:03:00,
2013-01-21 05:18:00,22.5,15.0,30.12,West,261,0.0,0.0,73,0.00,,,0.00,weatherlink.com 1.10,2013-01-21 10:18:00,
2013-01-21 05:33:00,22.7,15.0,30.12,West,263,0.0,0.0,73,0.00,,,0.00,weatherlink.com 1.10,2013-01-21 10:33:00,
2013-01-21 05:48:00,22.4,15.0,30.12,West,262,0.0,0.0,74,0.00,,,0.00,weatherlink.com 1.10,2013-01-21 10:48:00,
2013-01-21 06:03:00,22.1,15.0,30.12,West,262,0.0,0.0,73,0.00,,,0.00,weatherlink.com 1.10,2013-01-21 11:03:00,
2013-01-21 06:18:00,21.8,15.0,30.12,West,262,0.0,0.0,74,0.00,,,0.00,weatherlink.com 1.10,2013-01-21 11:18:00,
2013-01-21 06:33:00,21.8,14.0,30.13,West,262,0.0,0.0,73,0.00,,,0.00,weatherlink.com 1.10,2013-01-21 11:33:00,
2013-01-21 06:48:00,22.3,16.0,30.13,West,263,0.0,0.0,75,0.00,,,0.00,weatherlink.com 1.10,2013-01-21 11:48:00,
2013-01-21 07:03:00,22.8,17.0,30.12,West,263,0.0,0.0,77,0.00,,,0.00,weatherlink.com 1.10,2013-01-21 12:03:00,
2013-01-21 07:18:00,22.8,16.0,30.12,West,263,0.0,0.0,76,0.00,,,0.00,weatherlink.com 1.10,2013-01-21 12:18:00,
2013-01-21 07:33:00,23.2,16.0,30.13,West,262,0.0,0.0,75,0.00,,,0.00,weatherlink.com 1.10,2013-01-21 12:33:00,
2013-01-21 07:48:00,23.8,16.0,30.13,West,262,0.0,0.0,71,0.00,,,0.00,weatherlink.com 1.10,2013-01-21 12:48:00,
2013-01-21 08:03:00,24.3,16.0,30.13,WSW,252,0.0,0.0,71,0.00,,,0.00,weatherlink.com 1.10,2013-01-21 13:03:00,
2013-01-21 08:18:00,24.7,16.0,30.13,WSW,253,0.0,0.0,69,0.00,,,0.00,weatherlink.com 1.10,2013-01-21 13:18:00,
2013-01-21 08:33:00,25.1,14.0,30.13,WSW,253,0.0,0.0,62,0.00,,,0.00,weatherlink.com 1.10,2013-01-21 13:33:00,
2013-01-21 08:48:00,25.7,14.0,30.13,WSW,253,0.0,0.0,62,0.00,,,0.00,weatherlink.com 1.10,2013-01-21 13:48:00,
2013-01-21 09:04:00,26.1,13.0,30.12,ESE,118,0.0,1.0,57,0.00,,,0.00,weatherlink.com 1.10,2013-01-21 14:04:00,
2013-01-21 09:18:00,26.3,13.0,30.12,SE,129,0.0,1.0,58,0.00,,,0.00,weatherlink.com 1.10,2013-01-21 14:18:00,
2013-01-21 09:33:00,26.7,12.0,30.12,ESE,106,1.0,2.0,55,0.00,,,0.00,weatherlink.com 1.10,2013-01-21 14:33:00,
2013-01-21 09:48:00,27.0,13.0,30.12,ESE,105,0.0,1.0,56,0.00,,,0.00,weatherlink.com 1.10,2013-01-21 14:48:00,
2013-01-21 10:03:00,27.3,14.0,30.11,SSE,148,0.0,2.0,57,0.00,,,0.00,weatherlink.com 1.10,2013-01-21 15:03:00,
2013-01-21 10:18:00,27.4,15.0,30.11,SSE,152,1.0,4.0,60,0.00,,,0.00,weatherlink.com 1.10,2013-01-21 15:18:00,
2013-01-21 10:33:00,27.4,14.0,30.11,SSE,167,1.0,6.0,58,0.00,,,0.00,weatherlink.com 1.10,2013-01-21 15:33:00,
2013-01-21 10:48:00,27.8,15.0,30.10,SW,219,2.0,6.0,59,0.00,,,0.00,weatherlink.com 1.10,2013-01-21 15:48:00,
2013-01-21 11:03:00,28.2,16.0,30.09,South,187,3.0,7.0,60,0.00,,,0.00,weatherlink.com 1.10,2013-01-21 16:03:00,
2013-01-21 11:18:00,28.7,15.0,30.09,SE,131,4.0,7.0,58,0.00,,,0.00,weatherlink.com 1.10,2013-01-21 16:18:00,
2013-01-21 11:33:00,29.5,17.0,30.07,SE,135,1.0,4.0,60,0.00,,,0.00,weatherlink.com 1.10,2013-01-21 16:33:00,
2013-01-21 11:48:00,30.0,16.0,30.06,ESE,118,2.0,5.0,57,0.00,,,0.00,weatherlink.com 1.10,2013-01-21 16:48:00,
2013-01-21 12:19:00,29.3,16.0,30.03,WNW,289,2.0,7.0,59,0.00,,,0.00,weatherlink.com 1.10,2013-01-21 17:19:00,
2013-01-21 12:34:00,29.4,16.0,30.02,WNW,295,0.0,9.0,58,0.00,,,0.00,weatherlink.com 1.10,2013-01-21 17:34:00,
2013-01-21 12:49:00,29.9,17.0,30.01,ESE,120,1.0,4.0,59,0.00,,,0.00,weatherlink.com 1.10,2013-01-21 17:49:00,
2013-01-21 13:03:00,30.1,17.0,30.01,West,270,3.0,6.0,58,0.00,,,0.00,weatherlink.com 1.10,2013-01-21 18:03:00,
2013-01-21 13:33:00,30.2,17.0,29.98,WNW,284,2.0,7.0,59,0.00,,,0.00,weatherlink.com 1.10,2013-01-21 18:33:00,
2013-01-21 13:48:00,30.5,17.0,29.97,WNW,290,6.0,6.0,58,0.00,,,0.00,weatherlink.com 1.10,2013-01-21 18:48:00,
2013-01-21 14:04:00,30.9,18.0,29.96,East,84,3.0,5.0,58,0.00,,,0.00,weatherlink.com 1.10,2013-01-21 19:04:00,
2013-01-21 14:19:00,31.3,18.0,29.94,East,97,4.0,7.0,58,0.00,,,0.00,weatherlink.com 1.10,2013-01-21 19:19:00,
2013-01-21 14:34:00,31.3,18.0,29.93,WSW,245,1.0,6.0,59,0.00,,,0.00,weatherlink.com 1.10,2013-01-21 19:34:00,
2013-01-21 14:49:00,32.8,19.0,29.92,WNW,302,1.0,8.0,58,0.00,,,0.00,weatherlink.com 1.10,2013-01-21 19:49:00,
2013-01-21 15:04:00,34.0,20.0,29.90,SE,134,2.0,7.0,56,0.00,,,0.00,weatherlink.com 1.10,2013-01-21 20:04:00,
2013-01-21 15:18:00,34.7,20.0,29.90,West,264,2.0,8.0,55,0.00,,,0.00,weatherlink.com 1.10,2013-01-21 20:18:00,
2013-01-21 15:33:00,34.6,19.0,29.90,East,87,2.0,8.0,54,0.00,,,0.00,weatherlink.com 1.10,2013-01-21 20:33:00,
2013-01-21 15:48:00,35.0,20.0,29.90,West,266,2.0,5.0,54,0.00,,,0.00,weatherlink.com 1.10,2013-01-21 20:48:00,
2013-01-21 16:04:00,34.7,20.0,29.89,SE,134,3.0,5.0,55,0.00,,,0.00,weatherlink.com 1.10,2013-01-21 21:04:00,
2013-01-21 16:19:00,34.8,20.0,29.90,SE,128,0.0,4.0,55,0.00,,,0.00,weatherlink.com 1.10,2013-01-21 21:19:00,
2013-01-21 16:34:00,34.1,20.0,29.90,East,84,1.0,1.0,56,0.00,,,0.00,weatherlink.com 1.10,2013-01-21 21:34:00,
2013-01-21 16:49:00,33.3,20.0,29.91,East,83,0.0,1.0,58,0.00,,,0.00,weatherlink.com 1.10,2013-01-21 21:49:00,
2013-01-21 17:03:00,32.8,21.0,29.91,East,83,0.0,0.0,61,0.00,,,0.00,weatherlink.com 1.10,2013-01-21 22:03:00,
2013-01-21 17:18:00,32.3,21.0,29.91,East,83,0.0,0.0,63,0.00,,,0.00,weatherlink.com 1.10,2013-01-21 22:18:00,
2013-01-21 17:33:00,32.1,21.0,29.91,East,83,0.0,0.0,64,0.00,,,0.00,weatherlink.com 1.10,2013-01-21 22:33:00,
2013-01-21 17:48:00,32.0,21.0,29.91,East,84,0.0,0.0,64,0.00,,,0.00,weatherlink.com 1.10,2013-01-21 22:48:00,
2013-01-21 18:04:00,31.8,20.0,29.92,East,83,0.0,0.0,63,0.00,,,0.00,weatherlink.com 1.10,2013-01-21 23:04:00,
2013-01-21 18:18:00,31.5,21.0,29.93,East,83,0.0,0.0,64,0.00,,,0.00,weatherlink.com 1.10,2013-01-21 23:18:00,
2013-01-21 18:33:00,31.2,22.0,29.93,East,83,0.0,0.0,68,0.00,,,0.00,weatherlink.com 1.10,2013-01-21 23:33:00,
2013-01-21 18:48:00,31.1,23.0,29.94,East,83,0.0,1.0,71,0.00,,,0.00,weatherlink.com 1.10,2013-01-21 23:48:00,
2013-01-21 19:03:00,31.1,23.0,29.95,WSW,248,0.0,2.0,72,0.00,,,0.00,weatherlink.com 1.10,2013-01-22 00:03:00,
2013-01-21 19:18:00,30.5,24.0,29.96,SW,233,1.0,3.0,78,0.00,,,0.00,weatherlink.com 1.10,2013-01-22 00:18:00,
2013-01-21 19:33:00,29.6,24.0,29.96,SSE,162,0.0,1.0,81,0.00,,,0.00,weatherlink.com 1.10,2013-01-22 00:33:00,
2013-01-21 19:48:00,28.3,24.0,29.96,ENE,74,0.0,0.0,82,0.00,,,0.00,weatherlink.com 1.10,2013-01-22 00:48:00,
2013-01-21 20:03:00,27.2,23.0,29.95,North,355,0.0,0.0,84,0.00,,,0.00,weatherlink.com 1.10,2013-01-22 01:03:00,
2013-01-21 20:19:00,26.5,23.0,29.95,NW,322,0.0,0.0,86,0.00,,,0.00,weatherlink.com 1.10,2013-01-22 01:19:00,
2013-01-21 20:33:00,26.1,23.0,29.94,NW,322,0.0,0.0,87,0.00,,,0.00,weatherlink.com 1.10,2013-01-22 01:33:00,
2013-01-21 20:48:00,25.7,23.0,29.94,NW,319,0.0,0.0,88,0.00,,,0.00,weatherlink.com 1.10,2013-01-22 01:48:00,
2013-01-21 21:03:00,25.2,22.0,29.94,NW,319,0.0,0.0,88,0.00,,,0.00,weatherlink.com 1.10,2013-01-22 02:03:00,
2013-01-21 21:18:00,24.9,22.0,29.94,NW,319,0.0,0.0,88,0.00,,,0.00,weatherlink.com 1.10,2013-01-22 02:18:00,
2013-01-21 21:33:00,24.9,21.0,29.94,WNW,286,0.0,0.0,86,0.00,,,0.00,weatherlink.com 1.10,2013-01-22 02:33:00,
2013-01-21 21:48:00,24.6,20.0,29.94,NE,49,0.0,2.0,84,0.00,,,0.00,weatherlink.com 1.10,2013-01-22 02:48:00,
2013-01-21 22:03:00,24.5,20.0,29.95,WNW,285,0.0,3.0,83,0.00,,,0.00,weatherlink.com 1.10,2013-01-22 03:03:00,
2013-01-21 22:19:00,23.8,19.0,29.95,WNW,295,0.0,2.0,80,0.00,,,0.00,weatherlink.com 1.10,2013-01-22 03:19:00,
2013-01-21 22:35:00,23.5,18.0,29.95,West,281,1.0,1.0,79,0.00,,,0.00,weatherlink.com 1.10,2013-01-22 03:35:00,
2013-01-21 22:49:00,23.0,17.0,29.95,West,281,0.0,2.0,79,0.00,,,0.00,weatherlink.com 1.10,2013-01-22 03:49:00,
2013-01-21 23:04:00,22.9,17.0,29.96,West,279,1.0,2.0,79,0.00,,,0.00,weatherlink.com 1.10,2013-01-22 04:04:00,
2013-01-21 23:18:00,23.0,17.0,29.96,WSW,243,2.0,2.0,77,0.00,,,0.00,weatherlink.com 1.10,2013-01-22 04:18:00,
2013-01-21 23:34:00,23.2,17.0,29.96,West,265,1.0,2.0,76,0.00,,,0.00,weatherlink.com 1.10,2013-01-22 04:34:00,
2013-01-21 23:49:00,24.2,16.0,29.96,West,263,4.0,7.0,72,0.00,,,0.00,weatherlink.com 1.10,2013-01-22 04:49:00,